1329007831628,0.000146665
1329007891628,0.000147334
1329007951628,0.000148442
1329008011628,0.000147811
1329008071628,0.000145892
1329011431639,0.000147555
1329011491639,0.000148058
1329011551639,0.000149673
1329011611639,0.000147872
1329011671639,0.000145452
1329015031650,0.000145172
1329015091650,0.000144936
1329015151650,0.000146118
1329015211650,0.000146260
1329015271650,0.000148962
1329018631661,0.000145917
1329018691661,0.000146150
1329018751661,0.000146575
1329018811661,0.000147972
1329018871661,0.000145348
1329022231672,0.000147597
1329022291672,0.000148747
1329022351672,0.000148803
1329022411672,0.000149144
1329022471672,0.000148776
1329025831683,0.000146972
1329025891683,0.000147067
1329025951683,0.000148860
1329026011683,0.000147592
1329026071683,0.000144274
1329029431695,0.000149449
1329029491695,0.000148232
1329029551695,0.000148508
1329029611695,0.000146457
1329029671695,0.000147787
1329033031706,0.000145843
1329033091706,0.000145352
1329033151706,0.000147708
1329033211706,0.000147911
1329033271706,0.000144721
1329036631718,0.000146315
1329036691718,0.000146167
1329036751718,0.000144649
1329036811718,0.000146868
1329036871718,0.000146398
1329040231729,0.000144244
1329040291729,0.000145431
1329040351729,0.000146898
1329040411729,0.000145422
1329040471729,0.000142410
1329043831741,0.000144333
1329043891741,0.000143386
1329043951741,0.000144221
1329044011741,0.000144346
1329044071741,0.000143650
1329047431753,0.000143592
1329047491753,0.000144313
1329047551753,0.000143462
1329047611753,0.000145184
1329047671753,0.000141594
1329051031765,0.000143508
1329051091765,0.000143606
1329051151765,0.000143249
1329051211765,0.000146051
1329051271765,0.000143616
1329054631776,0.000147249
1329054691776,0.000146927
1329054751776,0.000146290
1329054811776,0.000145606
1329054871776,0.000146011
1329054931776,0.000145275
1329054991776,0.000144272
1329055051776,0.000145751
1329055111776,0.000146395
1329055171776,0.000146436
1329055231788,0.000144421
1329055291788,0.000146148
1329055351788,0.000145401
1329055411788,0.000145683
1329055471788,0.000146778
1329055531788,0.000148043
1329055591788,0.000148389
1329055651788,0.000147614
1329055711788,0.000146905
1329055771788,0.000147279
1329055831788,0.000147662
1329055891788,0.000146551
1329055951788,0.000146075
1329056011788,0.000146038
1329056071788,0.000143584
1329056131788,0.000145523
1329056191788,0.000144612
1329056251788,0.000145427
1329056311788,0.000145809
1329056371788,0.000145815
1329056431788,0.000146494
1329056491788,0.000145052
1329056551788,0.000144589
1329056611788,0.000143826
1329056671788,0.000143918
1329056731788,0.000143337
1329056791788,0.000144024
1329056851788,0.000143190
1329056911788,0.000144839
1329056971788,0.000145156
1329057031788,0.000145485
1329057091788,0.000144454
1329057151788,0.000144316
1329057211788,0.000144106
1329057271788,0.000143828
1329057331788,0.000145171
1329057391788,0.000145245
1329057451788,0.000146790
1329057511788,0.000145409
1329057571788,0.000146459
1329057631788,0.000155187
1329057691788,0.000166859
1329057751788,0.000170597
1329057811788,0.000164457
1329057871788,0.000163952
1329057931788,0.000157184
1329057991788,0.000156906
1329058051788,0.000155071
1329058111788,0.000152204
1329058171788,0.000151443
1329058231788,0.000149863
1329058291788,0.000149703
1329058351788,0.000149198
1329058411788,0.000146139
1329058471788,0.000147176
1329058531788,0.000148389
1329058591788,0.000148150
1329058651788,0.000147881
1329058711788,0.000147190
1329058771788,0.000145840
1329058831800,0.000146786
1329058891800,0.000145799
1329058951800,0.000147348
1329059011800,0.000146974
1329059071800,0.000146121
1329059131800,0.000145631
1329059191800,0.000146539
1329059251800,0.000146959
1329059311800,0.000148202
1329059371800,0.000149192
1329059431800,0.000148331
1329059491800,0.000148101
1329059551800,0.000147633
1329059611800,0.000148021
1329059671800,0.000147076
1329059731800,0.000147384
1329059791800,0.000145867
1329059851800,0.000146365
1329059911800,0.000148025
1329059971800,0.000147667
1329060031800,0.000146391
1329060091800,0.000147856
1329060151800,0.000145646
1329060211800,0.000146454
1329060271800,0.000146287
1329060331800,0.000147716
1329060391800,0.000146039
1329060451800,0.000146805
1329060511800,0.000144291
1329060571800,0.000147608
1329060631800,0.000145088
1329060691800,0.000146012
1329060751800,0.000144313
1329060811800,0.000146895
1329060871800,0.000146501
1329060931800,0.000146146
1329060991800,0.000146783
1329061051800,0.000147577
1329061111800,0.000147297
1329061171800,0.000146047
1329061231800,0.000145125
1329061291800,0.000144036
1329061351800,0.000145659
1329061411800,0.000145518
1329061471800,0.000145678
1329061531800,0.000146348
1329061591800,0.000145336
1329061651800,0.000145293
1329061711800,0.000147469
1329061771800,0.000147741
1329061831800,0.000146860
1329061891800,0.000145024
1329061951800,0.000146217
1329062011800,0.000147126
1329062071800,0.000145480
1329062131800,0.000147736
1329062191800,0.000148011
1329062251800,0.000148246
1329062311800,0.000147672
1329062371800,0.000148289
1329062431811,0.000150104
1329062491811,0.000148723
1329062551811,0.000147777
1329062611811,0.000150373
1329062671811,0.000150742
1329062731811,0.000150850
1329062791811,0.000149552
1329062851811,0.000153091
1329062911811,0.000151037
1329062971811,0.000152748
1329063031811,0.000150084
1329063091811,0.000150366
1329063151811,0.000150601
1329063211811,0.000149152
1329063271811,0.000148596
1329063331811,0.000148151
1329063391811,0.000148372
1329063451811,0.000148804
1329063511811,0.000149678
1329063571811,0.000148185
1329063631811,0.000149892
1329063691811,0.000150732
1329063751811,0.000151114
1329063811811,0.000148981
1329063871811,0.000147745
1329063931811,0.000148742
1329063991811,0.000146862
1329064051811,0.000147297
1329064111811,0.000146741
1329064171811,0.000147036
1329064231811,0.000148017
1329064291811,0.000146424
1329064351811,0.000147030
1329064411811,0.000145005
1329064471811,0.000145578
1329064531811,0.000147494
1329064591811,0.000148381
1329064651811,0.000144909
1329064711811,0.000146550
1329064771811,0.000146280
1329064831811,0.000147066
1329064891811,0.000147371
1329064951811,0.000147432
1329065011811,0.000146483
1329065071811,0.000147725
1329065131811,0.000150686
1329065191811,0.000146315
1329065251811,0.000147272
1329065311811,0.000146232
1329065371811,0.000145767
1329065431811,0.000145207
1329065491811,0.000145903
1329065551811,0.000147005
1329065611811,0.000147463
1329065671811,0.000144793
1329069031823,0.000146187
1329069091823,0.000144703
1329069151823,0.000147157
1329069211823,0.000144366
1329069271823,0.000146743
1329072631834,0.000145061
1329072691834,0.000143645
1329072751834,0.000145818
1329072811834,0.000149524
1329072871834,0.000146517
1329076231845,0.000148114
1329076291845,0.000150384
1329076351845,0.000146601
1329076411845,0.000147063
1329076471845,0.000146164
1329079831856,0.000147836
1329079891856,0.000147392
1329079951856,0.000145396
1329080011856,0.000146542
1329080071856,0.000146707
1329083431867,0.000149777
1329083491867,0.000147771
1329083551867,0.000150756
1329083611867,0.000149601
1329083671867,0.000148961
1329087031878,0.000146832
1329087091878,0.000147985
1329087151878,0.000147611
1329087211878,0.000147726
1329087271878,0.000144088
1329090631888,0.000148901
1329090691888,0.000149238
1329090751888,0.000149022
1329090811888,0.000149248
1329090871888,0.000147243
